Rotterdam, Netherlands

8:33 AM CEST on August 21, 2017 (GMT +0200)
Rotterdam

Weather History for EHRD - October, 2014

Change the Weather History Date:

Saturday, October 11, 2014

  Actual Average Record
Temperature  
Mean Temperature 52 °F -  
Max Temperature 59 °F 53 °F 69 °F (2005)
Min Temperature 46 °F 43 °F 34 °F (2016)
Degree Days  
Heating Degree Days 12    
Growing Degree Days 2 (Base 50)    
Moisture  
Dew Point 52 °F    
Average Humidity 90    
Maximum Humidity 100    
Minimum Humidity 75    
Precipitation  
Precipitation 0.16 in - - ()
Sea Level Pressure  
Sea Level Pressure 29.90 in    
Wind  
Wind Speed 5 mph ()    
Max Wind Speed 10 mph    
Max Gust Speed 17 mph    
Visibility 6.2 miles    
Events Rain    
Averages and records for this station are not official NWS values.
T = Trace of Precipitation, MM = Missing Value Source: Averaged Metar Reports

Daily Weather History Graph

Daily Weather History Graph

Search for Another Location

Airport or City:

Trip Planner

Search our weather history database for the weather conditions in past years. The results will help you decide how hot, cold, wet, or windy it might be!

Date:

Astronomy

Oct. 11, 2014 Rise Set
Actual Time 7:59 AM CEST 6:57 PM CEST
Civil Twilight 7:25 AM CEST 7:31 PM CEST
Nautical Twilight 6:46 AM CEST 8:10 PM CEST
Astronomical Twilight 6:07 AM CEST 8:49 PM CEST
Moon 8:50 PM CEST (10/11) 11:28 AM CEST (10/11)
Length of Visible Light 12h 05m
Length of Day
10h 57m
Waning Gibbous, 89% of the Moon is Illuminated
Oct 11
Waning Gibbous
Oct 15
Last Quarter
Oct 23
New
Oct 31
First Quarter
Nov 6
Full

Hourly Weather History & Observations

Time (CEST) Temp. Windchill Dew Point Humidity Pressure Visibility Wind Dir Wind Speed Gust Speed Precip Events Conditions
12:00 AM 54 °F - 50 °F 83% 29.95 in 10 mi South 4.5 mph - -   Scattered Clouds
12:25 AM 53.6 °F - 50.0 °F 88% 29.95 in 6.2 mi SSW 4.6 mph - N/A   Unknown
12:55 AM 53.6 °F - 50.0 °F 88% 29.92 in 6.2 mi South 4.6 mph - N/A   Unknown
1:00 AM 52 °F - 49 °F 85% 29.94 in 10 mi South 4.5 mph - -  
1:25 AM 50.0 °F - 48.2 °F 94% 29.92 in 6.2 mi South 5.8 mph - N/A   Unknown
1:55 AM 51.8 °F - 50.0 °F 94% 29.92 in 6.2 mi South 5.8 mph - N/A   Unknown
2:00 AM 51 °F - 50 °F 93% 29.94 in 9 mi South 4.5 mph - -   Partly Cloudy
2:25 AM 51.8 °F - 50.0 °F 94% 29.92 in 6.2 mi SSE 3.5 mph - N/A   Unknown
2:55 AM 50.0 °F - 50.0 °F 100% 29.92 in 6.2 mi ESE 3.5 mph - N/A   Unknown
3:00 AM 50 °F - 49 °F 94% 29.93 in 8 mi SE 4.5 mph - -   Mostly Cloudy
3:25 AM 50.0 °F - 50.0 °F 100% 29.92 in 6.2 mi SSE 3.5 mph - N/A   Unknown
3:55 AM 50.0 °F - 50.0 °F 100% 29.92 in 4.3 mi ESE 3.5 mph - N/A   Unknown
4:00 AM 50 °F - 49 °F 97% 29.92 in 3 mi ESE 2.2 mph - -   Mist
4:25 AM 46.4 °F 44.3 °F 46.4 °F 100% 29.89 in 6.2 mi SE 4.6 mph - N/A   Unknown
4:55 AM 50.0 °F - 50.0 °F 100% 29.92 in 4.3 mi SE 4.6 mph - N/A   Unknown
5:00 AM 50 °F - 50 °F 99% 29.92 in 4 mi SE 2.2 mph - -   Mist
5:25 AM 48.2 °F - 48.2 °F 100% 29.89 in 4.3 mi SSE 4.6 mph - N/A   Unknown
5:55 AM 48.2 °F - 48.2 °F 100% 29.89 in 5.6 mi SSE 3.5 mph - N/A   Unknown
6:00 AM 49 °F - 48 °F 96% 29.92 in 7 mi SSE 4.5 mph - -   Overcast
6:25 AM 51.8 °F - 50.0 °F 94% 29.89 in 6.2 mi SE 6.9 mph - N/A   Unknown
6:55 AM 51.8 °F - 50.0 °F 94% 29.89 in 6.2 mi SSE 5.8 mph - N/A   Unknown
7:00 AM 53 °F - 50 °F 87% 29.90 in 7 mi SE 6.7 mph - -   Overcast
7:25 AM 53.6 °F - 50.0 °F 88% 29.89 in 6.2 mi South 5.8 mph 17.3 mph N/A   Unknown
7:55 AM 51.8 °F - 50.0 °F 94% 29.89 in 6.2 mi SSE 4.6 mph - N/A   Unknown
8:00 AM 52 °F - 50 °F 91% 29.90 in 6 mi SSE 4.5 mph - -   Partly Cloudy
8:25 AM 51.8 °F - 50.0 °F 94% 29.89 in 6.2 mi SSE 5.8 mph - N/A   Unknown
8:55 AM 53.6 °F - 51.8 °F 94% 29.89 in 5.6 mi SSE 4.6 mph - N/A   Unknown
9:00 AM 53 °F - 52 °F 93% 29.91 in 6 mi SSE 4.5 mph - -   Overcast
9:25 AM 55.4 °F - 51.8 °F 88% 29.89 in 6.2 mi SSE 5.8 mph - N/A   Partly Cloudy
9:55 AM 55.4 °F - 51.8 °F 88% 29.89 in 6.2 mi South 3.5 mph - N/A   Unknown
10:00 AM 56 °F - 52 °F 83% 29.91 in 7 mi SSE 4.5 mph - - Rain Light Rain
10:25 AM 57.2 °F - 51.8 °F 82% 29.89 in 6.2 mi SSE 5.8 mph - N/A   Scattered Clouds
10:55 AM 57.2 °F - 51.8 °F 82% 29.89 in 6.2 mi SSE 5.8 mph - N/A Rain Light Rain
11:00 AM 57 °F - 52 °F 79% 29.91 in 8 mi South 4.5 mph - - Rain Light Rain Showers
11:25 AM 57.2 °F - 53.6 °F 88% 29.89 in 6.2 mi SSE 5.8 mph - N/A   Heavy Drizzle
11:55 AM 57.2 °F - 53.6 °F 88% 29.89 in 5.0 mi South 4.6 mph - N/A Rain Rain Showers
12:00 PM 57 °F - 54 °F 85% 29.90 in 6 mi South 4.5 mph - - Rain Rain
12:25 PM 57.2 °F - 53.6 °F 88% 29.89 in 6.2 mi SSE 4.6 mph - N/A Rain Light Rain
12:55 PM 57.2 °F - 53.6 °F 88% 29.89 in 5.6 mi South 5.8 mph - N/A Rain Light Rain
1:00 PM 57 °F - 54 °F 88% 29.90 in 5 mi SSE 6.7 mph - - Rain Light Rain Showers
1:25 PM 57.2 °F - 53.6 °F 88% 29.89 in 4.3 mi South 5.8 mph - N/A Rain Light Rain Showers
1:55 PM 55.4 °F - 53.6 °F 94% 29.89 in 3.7 mi SSE 3.5 mph - N/A Rain Rain Showers
2:00 PM 56 °F - 54 °F 92% 29.89 in 4 mi SSE 4.5 mph - - Rain Rain
2:25 PM 55.4 °F - 53.6 °F 94% 29.86 in 4.3 mi ESE 4.6 mph - N/A Rain Rain Showers
2:55 PM 55.4 °F - 53.6 °F 94% 29.86 in 6.2 mi SW 2.3 mph - N/A Rain Light Rain
3:00 PM 56 °F - 53 °F 87% 29.88 in 7 mi SW 2.2 mph - - Rain Light Rain
3:25 PM 57.2 °F - 53.6 °F 88% 29.86 in 6.2 mi South 3.5 mph - N/A   Scattered Clouds
3:55 PM 59.0 °F - 53.6 °F 82% 29.86 in 6.2 mi South 3.5 mph - N/A   Mostly Cloudy
4:00 PM 59 °F - 53 °F 75% 29.88 in 10 mi South 4.5 mph - - Rain Rain
4:25 PM 59.0 °F - 53.6 °F 82% 29.86 in 6.2 mi South 4.6 mph - N/A   Mostly Cloudy
4:55 PM 59.0 °F - 53.6 °F 82% 29.86 in 6.2 mi South 5.8 mph - N/A   Partly Cloudy
5:00 PM 59 °F - 54 °F 77% 29.88 in 11 mi South 6.7 mph - -   Partly Cloudy
5:25 PM 57.2 °F - 53.6 °F 88% 29.86 in 6.2 mi South 6.9 mph - N/A   Partly Cloudy
5:55 PM 59.0 °F - 53.6 °F 82% 29.86 in 6.2 mi South 6.9 mph - N/A   Unknown
6:00 PM 58 °F - 53 °F 80% 29.89 in 11 mi South 6.7 mph - -  
6:25 PM 57.2 °F - 53.6 °F 88% 29.86 in 6.2 mi South 6.9 mph - N/A   Partly Cloudy
6:55 PM 55.4 °F - 53.6 °F 94% 29.89 in 6.2 mi South 5.8 mph - N/A   Unknown
7:00 PM 56 °F - 53 °F 86% 29.90 in 8 mi South 4.5 mph - -   Partly Cloudy
7:25 PM 55.4 °F - 53.6 °F 94% 29.89 in 6.2 mi South 5.8 mph - N/A   Scattered Clouds
7:55 PM 55.4 °F - 53.6 °F 94% 29.89 in 5.0 mi South 8.1 mph - N/A   Unknown
8:00 PM 55 °F - 54 °F 94% 29.90 in 4 mi South 6.7 mph - -   Mist
8:25 PM 55.4 °F - 53.6 °F 94% 29.89 in 3.7 mi South 5.8 mph - N/A   Unknown
8:55 PM 55.4 °F - 53.6 °F 94% 29.89 in 3.7 mi South 6.9 mph - N/A   Unknown
9:00 PM 55 °F - 54 °F 94% 29.91 in 4 mi South 8.9 mph - -   Mist
9:25 PM 55.4 °F - 53.6 °F 94% 29.89 in 3.7 mi South 6.9 mph - N/A   Unknown
9:55 PM 55.4 °F - 53.6 °F 94% 29.89 in 4.3 mi South 6.9 mph - N/A   Unknown
10:00 PM 54 °F - 53 °F 95% 29.92 in 4 mi South 6.7 mph - -   Mist
10:25 PM 53.6 °F - 51.8 °F 94% 29.92 in 6.2 mi SSW 9.2 mph - N/A   Unknown
10:55 PM 55.4 °F - 51.8 °F 88% 29.92 in 6.2 mi SW 10.4 mph - N/A   Unknown
11:00 PM 56 °F - 51 °F 80% 29.93 in 16 mi SW 8.9 mph - -   Partly Cloudy
11:25 PM 55.4 °F - 51.8 °F 88% 29.92 in 6.2 mi SW 10.4 mph - N/A   Unknown
11:55 PM 55.4 °F - 51.8 °F 88% 29.92 in 6.2 mi SSW 10.4 mph - N/A   Unknown